�������l�o���
Date,Time,MP-1(��Sv/h),MP-2(��Sv/h),MP-3(��Sv/h),MP-4(��Sv/h),MP-5(��Sv/h),MP-6(��Sv/h),MP-7(��Sv/h),����,����(m/s),���J
2019/06/11,00:00,0.185,0.173,0.281,0.262,0.264,0.142,0.091,�k,8.6,�L
2019/06/11,00:10,0.186,0.172,0.278,0.263,0.267,0.142,0.091,�k�k��,7.6,�L
2019/06/11,00:20,0.185,0.172,0.282,0.262,0.266,0.142,0.090,�k�k��,8.2,�L
2019/06/11,00:30,0.186,0.173,0.279,0.262,0.265,0.142,0.092,�k,8.1,�L
2019/06/11,00:40,0.186,0.173,0.279,0.261,0.266,0.142,0.091,�k�k��,9.5,�L
2019/06/11,00:50,0.185,0.172,0.281,0.262,0.264,0.142,0.091,�k,8.2,�L
2019/06/11,01:00,0.185,0.173,0.279,0.262,0.265,0.141,0.091,�k,8.5,�L
2019/06/11,01:10,0.184,0.173,0.280,0.261,0.263,0.141,0.092,�k�k��,8.8,�L
2019/06/11,01:20,0.185,0.173,0.280,0.262,0.265,0.142,0.091,�k�k��,7.6,�L
2019/06/11,01:30,0.186,0.173,0.279,0.261,0.264,0.143,0.093,�k,8.4,�L
2019/06/11,01:40,0.185,0.174,0.279,0.263,0.266,0.142,0.093,�k,9.8,�L
2019/06/11,01:50,0.185,0.174,0.279,0.260,0.265,0.142,0.093,�k�k��,9.0,�L
2019/06/11,02:00,0.185,0.175,0.281,0.261,0.265,0.144,0.094,�k�k��,8.7,�L
2019/06/11,02:10,0.186,0.176,0.281,0.263,0.268,0.144,0.095,�k,9.2,�L
2019/06/11,02:20,0.185,0.176,0.279,0.260,0.266,0.145,0.095,-,CALM,�L
2019/06/11,02:30,0.185,0.175,0.281,0.262,0.268,0.145,0.095,�k,9.0,�L
2019/06/11,02:40,0.186,0.176,0.279,0.260,0.265,0.145,0.095,-,CALM,�L
2019/06/11,02:50,0.185,0.176,0.282,0.261,0.267,0.145,0.095,�k�k��,9.2,�L
2019/06/11,03:00,0.185,0.176,0.279,0.262,0.268,0.145,0.096,�k,9.5,�L
2019/06/11,03:10,0.185,0.176,0.279,0.260,0.267,0.146,0.096,-,CALM,�L
2019/06/11,03:20,0.185,0.176,0.280,0.262,0.269,0.146,0.096,�k,9.8,�L
2019/06/11,03:30,0.185,0.176,0.280,0.261,0.267,0.146,0.097,�k,7.8,�L
2019/06/11,03:40,0.184,0.176,0.279,0.260,0.268,0.146,0.096,�k,10.9,�L
2019/06/11,03:50,0.186,0.176,0.281,0.261,0.267,0.146,0.097,�k,8.1,�L
2019/06/11,04:00,0.186,0.176,0.280,0.261,0.267,0.146,0.096,�k,7.3,�L
2019/06/11,04:10,0.185,0.175,0.281,0.263,0.269,0.145,0.097,�k,9.8,�L
2019/06/11,04:20,0.185,0.175,0.280,0.262,0.267,0.146,0.096,�k,9.2,�L
2019/06/11,04:30,0.185,0.176,0.281,0.261,0.269,0.145,0.096,�k�k��,10.7,�L
2019/06/11,04:40,0.185,0.176,0.281,0.264,0.266,0.145,0.096,�k,9.5,�L
2019/06/11,04:50,0.185,0.176,0.279,0.264,0.268,0.146,0.096,�k,8.8,�L
2019/06/11,05:00,0.184,0.177,0.282,0.264,0.269,0.145,0.096,�k,8.2,�L
2019/06/11,05:10,0.187,0.177,0.281,0.263,0.268,0.146,0.097,�k,7.7,�L
2019/06/11,05:20,0.187,0.177,0.282,0.265,0.270,0.146,0.097,�k�k��,7.1,�L
2019/06/11,05:30,0.187,0.177,0.284,0.265,0.269,0.147,0.097,�k,8.5,�L
2019/06/11,05:40,0.188,0.177,0.282,0.265,0.270,0.147,0.096,�k,9.0,�L
2019/06/11,05:50,0.187,0.177,0.285,0.268,0.270,0.146,0.096,�k,7.9,�L
2019/06/11,06:00,0.188,0.176,0.283,0.265,0.270,0.147,0.097,�k,7.8,�L
2019/06/11,06:10,0.188,0.177,0.284,0.269,0.271,0.147,0.097,�k,9.0,�L
2019/06/11,06:20,0.189,0.177,0.283,0.266,0.270,0.147,0.096,�k,9.5,�L
2019/06/11,06:30,0.188,0.176,0.283,0.267,0.271,0.146,0.096,�k,11.2,�L
2019/06/11,06:40,0.187,0.174,0.283,0.265,0.267,0.144,0.094,�k,10.6,��
2019/06/11,06:50,0.186,0.174,0.280,0.264,0.267,0.143,0.093,�k,9.5,��
2019/06/11,07:00,0.185,0.173,0.281,0.264,0.265,0.141,0.091,�k,9.3,�L
2019/06/11,07:10,0.186,0.172,0.279,0.262,0.265,0.141,0.091,�k�k��,9.0,�L
2019/06/11,07:20,0.185,0.171,0.280,0.263,0.267,0.141,0.091,�k�k��,8.7,�L
2019/06/11,07:30,0.186,0.172,0.280,0.263,0.265,0.140,0.090,�k�k��,8.7,�L
2019/06/11,07:40,0.186,0.171,0.279,0.263,0.267,0.141,0.090,�k,10.9,��
2019/06/11,07:50,0.184,0.171,0.281,0.262,0.266,0.141,0.090,�k,11.1,��
2019/06/11,08:00,0.186,0.171,0.279,0.261,0.265,0.140,0.090,�k,12.8,��
2019/06/11,08:10,0.184,0.168,0.280,0.264,0.264,0.139,0.089,�k,11.2,��
2019/06/11,08:20,0.184,0.169,0.278,0.260,0.263,0.139,0.089,�k�k��,11.0,��
2019/06/11,08:30,0.184,0.169,0.280,0.262,0.264,0.139,0.088,�k,10.1,��
2019/06/11,08:40,0.184,0.169,0.279,0.259,0.262,0.138,0.088,�k,11.4,��
2019/06/11,08:50,0.183,0.169,0.279,0.261,0.264,0.138,0.086,�k,12.0,��
2019/06/11,09:00,0.183,0.169,0.279,0.261,0.262,0.140,0.087,�k,10.7,��
2019/06/11,09:10,0.184,0.168,0.278,0.261,0.264,0.138,0.087,�k,9.8,��
2019/06/11,09:20,0.184,0.168,0.280,0.261,0.262,0.139,0.087,�k,12.6,��
2019/06/11,09:30,0.183,0.168,0.278,0.261,0.265,0.138,0.086,�k,11.5,�L
2019/06/11,09:40,0.183,0.167,0.281,0.262,0.262,0.138,0.086,�k,11.5,��
2019/06/11,09:50,0.184,0.168,0.278,0.260,0.265,0.139,0.087,�k�k��,11.2,��
2019/06/11,10:00,0.184,0.168,0.279,0.263,0.261,0.139,0.086,�k,10.1,��
2019/06/11,10:10,0.183,0.170,0.279,0.261,0.264,0.139,0.087,�k,11.1,��
2019/06/11,10:20,0.185,0.168,0.279,0.261,0.263,0.138,0.086,�k,12.8,��
2019/06/11,10:30,0.183,0.169,0.281,0.261,0.263,0.139,0.086,�k,11.4,��
2019/06/11,10:40,0.184,0.168,0.278,0.262,0.263,0.138,0.087,�k,10.1,��
2019/06/11,10:50,0.184,0.168,0.281,0.261,0.264,0.139,0.087,�k,9.5,��
2019/06/11,11:00,0.185,0.169,0.278,0.263,0.261,0.139,0.086,�k,9.5,��
2019/06/11,11:10,0.184,0.169,0.280,0.261,0.265,0.139,0.086,�k,12.1,��
2019/06/11,11:20,0.184,0.168,0.279,0.264,0.262,0.138,0.086,�k,10.1,��
2019/06/11,11:30,0.183,0.170,0.280,0.261,0.265,0.140,0.088,�k�k��,10.7,��
2019/06/11,11:40,0.185,0.169,0.280,0.264,0.263,0.139,0.087,�k,11.6,��
2019/06/11,11:50,0.184,0.169,0.280,0.261,0.263,0.139,0.087,�k,11.8,��
2019/06/11,12:00,0.186,0.168,0.280,0.261,0.264,0.140,0.087,�k�k��,9.5,��
2019/06/11,12:10,0.184,0.169,0.280,0.264,0.262,0.139,0.086,�k,11.5,��
2019/06/11,12:20,0.186,0.169,0.279,0.261,0.264,0.139,0.087,�k,11.6,��
2019/06/11,12:30,0.183,0.169,0.280,0.265,0.264,0.140,0.086,�k,14.5,��
2019/06/11,12:40,0.185,0.168,0.280,0.263,0.265,0.139,0.087,�k,10.9,��
2019/06/11,12:50,0.184,0.169,0.283,0.263,0.266,0.139,0.087,�k,10.0,��
2019/06/11,13:00,0.185,0.169,0.280,0.263,0.262,0.140,0.087,�k�k��,8.7,��
2019/06/11,13:10,0.185,0.169,0.282,0.263,0.266,0.139,0.087,�k�k��,9.0,��
2019/06/11,13:20,0.186,0.169,0.280,0.264,0.263,0.140,0.087,�k�k��,9.3,��
2019/06/11,13:30,0.186,0.169,0.282,0.262,0.263,0.139,0.086,�k�k��,11.1,��
2019/06/11,13:40,0.183,0.169,0.280,0.264,0.265,0.139,0.087,�k�k��,11.2,��
2019/06/11,13:50,0.185,0.169,0.282,0.262,0.262,0.140,0.087,�k�k��,10.7,��
2019/06/11,14:00,0.185,0.168,0.281,0.262,0.264,0.140,0.086,�k,10.1,��
2019/06/11,14:10,0.185,0.169,0.280,0.263,0.264,0.139,0.087,�k,10.4,��
2019/06/11,14:20,0.185,0.167,0.283,0.262,0.263,0.141,0.086,�k,9.8,��
2019/06/11,14:30,0.186,0.169,0.280,0.264,0.266,0.140,0.087,�k�k��,10.1,��
2019/06/11,14:40,0.185,0.169,0.284,0.264,0.264,0.139,0.087,�k,9.2,��
2019/06/11,14:50,0.186,0.169,0.281,0.263,0.263,0.140,0.088,�k,9.5,��
2019/06/11,15:00,0.186,0.170,0.281,0.264,0.266,0.140,0.087,�k,10.0,��
2019/06/11,15:10,0.185,0.168,0.283,0.264,0.264,0.141,0.088,�k�k��,8.7,��
2019/06/11,15:20,0.186,0.170,0.282,0.264,0.264,0.141,0.087,�k�k��,10.0,��
2019/06/11,15:30,0.185,0.169,0.283,0.265,0.266,0.141,0.087,�k�k��,8.1,��
2019/06/11,15:40,0.187,0.170,0.280,0.263,0.264,0.140,0.088,�k�k��,8.7,��
2019/06/11,15:50,0.186,0.169,0.285,0.266,0.266,0.141,0.087,�k�k��,8.7,��
2019/06/11,16:00,0.187,0.171,0.281,0.265,0.266,0.140,0.088,�k,8.1,��
2019/06/11,16:10,0.186,0.169,0.283,0.267,0.264,0.142,0.087,�k,10.1,��
2019/06/11,16:20,0.188,0.170,0.282,0.264,0.266,0.140,0.088,�k,9.3,��
2019/06/11,16:30,0.185,0.170,0.284,0.265,0.264,0.141,0.088,�k,8.6,��
2019/06/11,16:40,0.188,0.171,0.282,0.267,0.267,0.141,0.088,�k�k��,9.8,��
2019/06/11,16:50,0.186,0.169,0.284,0.266,0.265,0.140,0.087,�k�k��,10.0,��
2019/06/11,17:00,0.188,0.170,0.282,0.267,0.268,0.143,0.088,�k,9.2,��
2019/06/11,17:10,0.186,0.169,0.283,0.265,0.264,0.141,0.088,�k�k��,9.8,��
2019/06/11,17:20,0.187,0.170,0.282,0.267,0.266,0.142,0.087,�k�k��,8.7,��
2019/06/11,17:30,0.187,0.170,0.283,0.265,0.266,0.140,0.088,�k�k��,10.4,��
2019/06/11,17:40,0.188,0.170,0.284,0.267,0.265,0.141,0.087,�k�k��,8.2,��
2019/06/11,17:50,0.185,0.170,0.285,0.266,0.267,0.141,0.087,�k,9.5,��
2019/06/11,18:00,0.187,0.169,0.282,0.266,0.265,0.142,0.087,�k�k��,7.5,��
2019/06/11,18:10,0.187,0.170,0.283,0.264,0.267,0.141,0.088,�k�k��,7.6,��
2019/06/11,18:20,0.187,0.170,0.284,0.266,0.265,0.142,0.087,�k�k��,8.4,��
2019/06/11,18:30,0.186,0.172,0.285,0.265,0.267,0.142,0.087,�k�k��,8.1,��
2019/06/11,18:40,0.187,0.170,0.284,0.266,0.266,0.141,0.087,�k�k��,9.6,��
2019/06/11,18:50,0.186,0.171,0.282,0.265,0.266,0.142,0.088,�k�k��,7.6,��
2019/06/11,19:00,0.187,0.170,0.285,0.268,0.267,0.142,0.087,�k,9.0,��
2019/06/11,19:10,0.186,0.170,0.282,0.266,0.267,0.141,0.088,�k�k��,9.2,��
2019/06/11,19:20,0.188,0.171,0.284,0.266,0.266,0.142,0.088,�k�k��,7.1,��
2019/06/11,19:30,0.187,0.170,0.282,0.266,0.266,0.142,0.087,�k�k��,8.1,��
2019/06/11,19:40,0.187,0.170,0.285,0.265,0.268,0.142,0.088,�k�k��,7.4,��
2019/06/11,19:50,0.187,0.170,0.283,0.266,0.265,0.142,0.087,�k,7.8,��
2019/06/11,20:00,0.187,0.170,0.286,0.266,0.267,0.141,0.087,�k�k��,8.2,��
2019/06/11,20:10,0.188,0.171,0.284,0.267,0.264,0.142,0.088,�k�k��,7.9,��
2019/06/11,20:20,0.187,0.170,0.283,0.266,0.268,0.142,0.087,�k,9.5,��
2019/06/11,20:30,0.188,0.170,0.284,0.267,0.265,0.141,0.088,�k�k��,8.4,��
2019/06/11,20:40,0.187,0.170,0.283,0.265,0.267,0.141,0.087,�k�k��,8.2,��
2019/06/11,20:50,0.188,0.170,0.285,0.267,0.265,0.141,0.088,�k�k��,8.4,��
2019/06/11,21:00,0.186,0.169,0.283,0.266,0.268,0.142,0.087,�k,7.8,��
2019/06/11,21:10,0.188,0.170,0.284,0.267,0.265,0.141,0.087,�k�k��,7.7,��
2019/06/11,21:20,0.188,0.170,0.283,0.267,0.267,0.142,0.087,�k,8.2,��
2019/06/11,21:30,0.186,0.170,0.285,0.267,0.265,0.142,0.088,�k�k��,7.3,��
2019/06/11,21:40,0.187,0.171,0.284,0.265,0.267,0.142,0.088,�k�k��,8.1,��
2019/06/11,21:50,0.187,0.170,0.284,0.266,0.266,0.141,0.088,�k,8.4,��
2019/06/11,22:00,0.188,0.172,0.284,0.268,0.266,0.142,0.088,�k�k��,8.2,��
2019/06/11,22:10,0.187,0.170,0.284,0.265,0.267,0.141,0.087,�k�k��,7.7,��
2019/06/11,22:20,0.187,0.171,0.284,0.267,0.265,0.143,0.088,�k�k��,7.3,��
2019/06/11,22:30,0.187,0.170,0.283,0.266,0.266,0.142,0.087,�k�k��,6.7,��
2019/06/11,22:40,0.188,0.170,0.284,0.267,0.265,0.142,0.088,�k�k��,7.0,��
2019/06/11,22:50,0.186,0.170,0.283,0.266,0.267,0.142,0.088,�k�k��,5.6,��
2019/06/11,23:00,0.188,0.170,0.285,0.267,0.265,0.142,0.087,�k�k��,7.0,��
2019/06/11,23:10,0.187,0.171,0.283,0.266,0.269,0.143,0.088,�k�k��,7.6,��
2019/06/11,23:20,0.187,0.170,0.284,0.266,0.264,0.142,0.088,�k�k��,6.3,��
2019/06/11,23:30,0.188,0.171,0.284,0.265,0.267,0.142,0.088,�k�k��,6.2,��
2019/06/11,23:40,0.187,0.170,0.284,0.266,0.265,0.141,0.087,�k�k��,6.2,��
2019/06/11,23:50,0.189,0.170,0.283,0.268,0.267,0.142,0.087,�k�k��,6.5,��
